This is the latest recevied weather packets stored in our database for station/object KC1OEK-13. If no packets are shown the sender has not sent any weather packets the latest 10 day(s).
| Time | Temp. | Humidity | Pressure | Rain* | Wind** | Luminosity | Snow |
|---|---|---|---|---|---|---|---|
| 1788088646 | 12.78° C | 99% | 1024.4 hPa | 0 mm | - | 37 W/m² | - |
| 1788088341 | 12.78° C | 99% | 1024.6 hPa | 0 mm | - | 32 W/m² | - |
| 1788088040 | 12.78° C | 99% | 1024.7 hPa | 0 mm | - | 30 W/m² | - |
| 1788087738 | 12.78° C | 99% | 1024.7 hPa | 0 mm | - | 24 W/m² | - |
| 1788087436 | 12.78° C | 99% | 1024.6 hPa | 0 mm | - | 23 W/m² | - |
| 1788087132 | 12.78° C | 99% | 1024.5 hPa | 0 mm | - | 21 W/m² | - |
| 1788086829 | 12.78° C | 99% | 1024.5 hPa | 0 mm | - | 20 W/m² | - |
| 1788086525 | 12.22° C | 99% | 1024.4 hPa | 0 mm | - | 18 W/m² | - |
| 1788086224 | 12.22° C | 99% | 1024.5 hPa | 0 mm | - | 17 W/m² | - |
| 1788085920 | 12.22° C | 99% | 1024.4 hPa | 0 mm | - | 11 W/m² | - |
| 1788085618 | 12.22° C | 99% | 1024.4 hPa | 0 mm | - | 7 W/m² | - |
| 1788085314 | 12.22° C | 99% | 1024.3 hPa | 0 mm | - | 4 W/m² | - |
| 1788085010 | 12.22° C | 99% | 1024.3 hPa | 0 mm | - | 2 W/m² | - |
| 1788084704 | 12.22° C | 99% | 1024.4 hPa | 0 mm | - | 1 W/m² | - |
| 1788084399 | 12.22° C | 99% | 1024.4 hPa | 0 mm | - | 1 W/m² | - |
| 1788084093 | 12.22° C | 99% | 1024.3 hPa | 0 mm | - | 0 W/m² | - |
| 1788083792 | 12.22° C | 99% | 1024.4 hPa | 0 mm | - | 0 W/m² | - |
| 1788083489 | 12.22° C | 99% | 1024.5 hPa | 0 mm | - | 0 W/m² | - |
| 1788083185 | 12.22° C | 99% | 1024.5 hPa | 0 mm | - | 0 W/m² | - |
| 1788082880 | 12.22° C | 99% | 1024.6 hPa | 0 mm | - | 0 W/m² | - |
| 1788082575 | 12.22° C | 99% | 1024.6 hPa | 0 mm | - | 0 W/m² | - |
| 1788082271 | 12.22° C | 99% | 1024.5 hPa | 0 mm | - | 0 W/m² | - |
| 1788081960 | 12.22° C | 99% | 1024.6 hPa | 0 mm | - | 0 W/m² | - |
| 1788081657 | 12.22° C | 99% | 1024.6 hPa | 0 mm | - | 0 W/m² | - |
| 1788081352 | 12.22° C | 99% | 1024.6 hPa | 0 mm | - | 0 W/m² | - |
* Rain latest hour (hover to see other rain measurements)
** Current wind speed in m/s (hover to see current wind gust speed)